Wind_Speed
57 58 59 60 62 65 63 58 54 50 48 46 44 44 42 40 38 35 32 29 26 24 23 20 19 17 17 16 15 14 13 12 12 11 11 11 10 9 9 8 8 7 6 6 5 4 3 2 2
57 58 59 61 64 64 62 57 53 51 48 47 47 46 43 41 38 36 32 30 28 26 24 22 20 18 17 16 16 15 14 14 13 12 12 11 11 10 9 9 9 8 7 7 6 5 4 3 3
57 59 60 63 64 62 58 54 51 50 50 50 49 47 45 41 38 35 33 31 29 27 25 23 21 19 18 17 16 16 15 15 14 13 13 12 12 11 10 10 9 9 8 7 6 6 5 4 4
56 58 61 64 62 58 55 53 52 51 52 51 51 49 46 42 39 36 34 32 30 28 26 24 22 21 19 18 17 17 16 15 15 14 13 13 13 12 11 11 10 9 9 8 7 6 6 5 5
56 58 61 62 60 56 54 55 54 53 53 52 51 50 47 43 41 39 35 33 31 29 27 25 24 22 21 19 18 18 17 16 16 15 14 14 13 13 12 12 11 10 9 9 8 7 7 6 6
57 58 60 60 58 56 55 55 55 54 54 53 52 51 49 45 43 40 37 35 33 31 29 27 25 23 22 21 20 19 18 17 17 16 15 15 14 14 13 12 11 11 10 9 8 8 8 7 7
56 57 57 56 56 56 55 55 56 54 54 54 53 52 51 48 45 43 40 37 35 33 30 28 26 25 23 22 21 20 19 18 18 17 16 16 16 15 14 13 13 12 11 10 9 9 8 8 8
54 55 56 54 55 56 55 55 56 55 54 55 55 54 52 48 45 44 42 39 37 34 31 29 27 26 25 23 22 21 20 19 18 18 17 17 16 16 15 15 14 13 12 11 11 10 9 9 9
53 54 55 53 53 54 55 56 56 57 56 56 56 54 52 50 46 44 43 41 38 35 32 30 29 27 26 25 23 22 21 20 19 19 18 18 17 17 16 16 15 14 13 13 12 11 10 10 10
53 53 52 53 53 54 56 56 56 57 57 56 55 54 53 52 49 46 43 41 39 36 33 31 30 28 27 26 25 24 22 22 21 20 20 19 18 18 17 17 16 15 15 14 13 13 12 12 12
51 51 49 51 54 54 56 56 55 55 56 57 55 54 53 52 50 48 45 43 40 37 35 33 32 30 28 27 26 25 24 23 22 22 21 20 20 19 19 18 18 17 16 15 15 15 14 14 14
48 49 49 49 53 53 54 55 55 54 54 55 55 53 53 52 50 49 47 44 41 38 36 35 33 31 30 29 28 27 26 25 24 24 23 22 21 21 20 20 19 19 18 17 17 17 17 16 16
44 47 46 48 51 53 53 54 55 53 53 53 53 54 53 52 50 50 47 46 44 40 38 37 35 33 31 30 30 29 28 27 26 25 25 24 23 22 22 22 21 21 20 20 19 19 19 19 19
43 43 45 46 49 51 53 54 55 53 54 52 52 52 53 52 51 49 48 46 45 43 40 38 36 34 33 32 31 30 29 28 27 27 26 25 25 24 24 23 23 23 23 22 22 21 21 21 21
41 40 44 46 46 50 51 53 54 52 54 52 51 51 51 51 50 49 48 47 46 44 42 40 37 36 35 34 34 32 30 29 29 29 28 27 26 26 26 26 26 25 25 25 24 24 24 23 23
37 37 39 43 44 47 50 49 51 53 53 52 51 51 50 50 49 49 48 47 47 46 44 42 40 39 38 36 36 34 33 31 31 31 30 29 28 28 28 28 28 27 27 27 27 26 26 26 26
36 37 37 38 42 44 47 47 48 51 52 51 49 50 51 50 50 49 48 48 48 47 45 45 42 41 40 39 38 37 35 34 33 32 31 31 30 29 29 29 29 29 29 29 29 29 28 28 28
32 35 34 35 39 41 43 45 47 49 49 50 49 48 49 50 50 48 47 47 48 47 45 46 45 42 42 41 40 38 37 36 34 34 33 33 32 31 31 31 31 31 31 31 31 31 31 31 31
26 30 31 32 35 38 40 40 43 49 47 47 49 48 48 48 48 48 47 47 47 47 46 44 45 44 43 42 41 40 39 38 37 36 35 35 34 33 33 34 34 33 33 32 32 33 34 34 34
22 27 29 29 32 34 39 40 41 45 46 45 47 49 48 48 47 47 48 49 48 46 47 46 45 46 47 46 44 42 41 40 38 38 37 37 36 36 36 36 35 35 35 35 36 36 37 37 37
20 23 26 27 29 31 34 38 39 41 45 46 46 47 47 47 46 46 47 47 48 49 48 47 46 46 46 46 45 44 43 42 41 40 40 39 37 37 38 38 38 38 38 37 37 38 39 40 41
18 22 24 25 26 28 31 34 38 40 41 44 45 46 47 47 47 46 47 47 48 48 49 49 48 48 47 47 47 46 45 44 43 42 42 40 40 39 39 39 39 39 39 39 40 40 40 41 42
17 20 22 24 26 26 27 31 33 37 40 42 45 45 45 46 47 48 48 48 48 49 49 50 50 49 48 48 47 46 45 44 43 43 42 41 41 41 41 41 41 41 41 41 42 42 43 44 44
15 17 19 22 24 25 25 28 29 32 35 38 41 44 44 44 45 47 48 49 48 49 50 50 51 50 49 49 48 47 46 45 44 44 44 43 43 43 43 44 43 43 43 43 44 45 46 47 47
13 14 15 18 21 22 23 25 26 29 32 35 37 40 43 45 46 47 48 49 50 49 50 50 50 51 51 50 49 49 48 48 47 46 45 45 45 45 45 46 46 46 46 47 47 47 48 48 49
11 12 13 14 16 18 20 21 22 25 29 31 34 37 39 41 44 46 48 49 50 50 50 51 51 50 51 50 50 49 50 49 49 49 48 48 48 48 48 48 48 49 49 49 49 49 49 49 49
9 10 10 11 13 15 18 19 19 21 27 31 33 35 37 40 41 44 47 48 50 51 51 51 52 52 52 52 52 51 51 51 51 51 51 50 49 49 49 50 50 50 50 51 50 50 50 51 50
8 8 9 10 11 12 14 17 18 18 22 27 32 35 36 39 41 43 46 47 48 49 51 51 51 51 51 52 53 53 53 53 52 51 52 52 52 51 51 52 52 52 51 50 51 51 52 51 51
6 8 8 9 11 12 13 16 18 19 20 23 28 32 34 37 39 42 45 46 47 48 49 51 51 51 51 51 51 52 53 53 52 52 52 52 52 52 52 52 51 51 50 50 50 50 50 50 50
5 5 6 7 9 11 12 13 16 19 21 21 24 27 30 33 36 39 42 44 46 47 48 48 50 51 51 50 50 50 50 51 51 51 52 52 51 51 51 50 50 50 50 50 49 50 49 49 50
Wind_Direction
221 218 217 217 217 218 218 216 213 212 211 211 211 213 215 216 217 216 217 216 216 216 217 217 217 217 217 219 219 219 219 221 223 224 225 226 227 228 230 230 231 234 239 238 234 239 238 233 219
217 216 216 216 217 218 217 215 212 211 211 211 211 212 214 215 215 214 215 216 216 217 218 217 215 215 216 218 219 218 219 222 223 225 225 226 228 230 232 231 231 234 237 238 238 240 239 233 229
215 215 215 216 216 217 216 213 212 210 210 211 212 212 213 213 213 212 214 215 216 216 216 216 215 215 216 217 219 219 219 221 223 225 226 227 229 231 232 231 231 234 237 237 237 238 238 236 239
212 213 215 216 217 215 214 211 211 209 209 210 211 212 212 211 212 211 213 215 215 215 215 215 215 215 216 218 217 218 220 221 223 225 227 228 229 231 231 230 232 234 237 238 237 237 238 240 244
210 212 214 216 215 213 210 209 210 209 207 208 209 210 210 211 211 212 213 214 214 215 215 215 215 215 216 217 217 219 220 221 223 226 227 229 230 232 230 230 232 234 236 237 236 238 239 242 247
209 212 214 215 212 210 209 208 209 208 207 208 210 211 210 212 212 212 213 214 214 215 215 216 216 217 217 217 218 220 221 221 223 226 227 229 230 230 230 231 233 235 236 236 238 241 242 245 250
209 211 214 213 211 208 208 208 209 207 208 208 210 211 210 210 209 210 212 215 215 216 215 216 217 217 217 218 219 221 221 221 223 226 228 229 229 231 232 233 234 235 237 239 240 243 246 249 255
208 211 212 210 209 207 206 208 208 207 207 208 210 211 210 210 209 211 213 215 214 214 215 216 217 218 219 219 220 222 222 222 224 227 229 230 230 231 233 234 235 236 239 241 243 245 249 254 260
207 209 210 208 208 206 206 207 208 208 207 208 211 212 211 212 212 213 214 215 215 215 216 217 217 219 220 221 222 224 224 224 225 227 228 230 231 232 234 236 237 239 241 244 246 248 252 257 263
207 208 208 208 207 205 205 207 207 208 207 208 210 212 213 213 214 214 215 216 218 216 216 218 219 220 221 222 223 225 226 227 227 228 230 231 232 234 236 239 240 242 244 247 250 252 256 261 266
205 207 206 207 207 206 205 206 207 208 208 209 211 212 215 215 215 216 216 217 218 217 218 220 221 222 223 224 225 227 228 230 230 231 232 233 235 237 239 242 243 245 246 249 252 255 259 264 269
205 205 205 206 207 206 207 207 207 207 209 210 211 212 214 217 217 217 218 219 218 218 219 220 222 223 224 226 227 229 230 232 233 234 236 237 238 240 243 245 246 248 249 252 255 259 263 266 271
203 204 205 206 207 206 206 206 206 208 208 210 212 214 215 217 218 218 219 220 219 220 221 222 223 224 226 228 230 231 232 234 235 237 238 240 242 244 246 248 250 251 253 255 258 262 265 269 273
201 204 207 206 206 206 207 207 205 206 208 210 212 214 214 216 218 219 220 221 221 221 222 222 223 226 228 230 232 232 233 235 237 239 241 243 244 247 249 250 252 254 256 259 261 264 267 271 275
202 204 205 206 207 206 206 207 206 207 209 211 213 214 215 215 218 220 221 221 222 222 223 223 226 227 229 231 233 234 235 237 239 241 243 245 246 248 251 253 255 257 258 260 263 265 268 272 275
202 205 206 206 205 205 207 207 208 207 209 211 212 214 215 217 218 220 220 220 221 222 223 224 227 228 230 232 234 235 237 238 240 242 245 246 247 250 252 255 257 258 260 262 264 266 269 273 276
205 206 207 208 207 208 208 206 207 208 209 210 210 213 216 219 220 221 221 221 222 222 223 225 226 227 229 231 233 235 237 238 240 243 246 247 249 251 253 256 258 260 262 263 265 268 270 274 277
208 209 209 210 208 209 210 209 209 210 211 211 210 211 215 219 222 222 222 223 224 224 226 226 226 229 231 232 233 236 237 239 241 243 245 248 250 253 255 257 260 261 263 265 266 270 273 275 278
206 208 210 212 210 211 212 211 211 213 211 212 213 213 214 216 220 221 222 223 225 226 227 227 228 230 231 233 236 238 238 239 242 244 247 249 252 254 257 259 261 262 264 266 268 271 274 276 278
203 205 209 212 213 215 214 212 213 214 213 212 213 216 216 216 219 222 223 224 225 226 228 229 231 233 235 236 237 240 241 241 244 247 249 252 255 257 258 260 262 264 266 268 270 272 275 277 279
203 206 209 212 214 218 219 218 217 218 218 216 214 216 217 219 221 224 225 226 228 228 229 231 233 234 236 238 239 242 244 246 247 250 251 253 255 257 260 262 263 265 267 270 272 274 275 277 279
204 208 211 213 215 217 222 224 221 220 221 219 216 216 219 223 223 224 227 228 230 231 233 233 235 237 238 240 241 243 245 248 249 250 252 254 257 259 261 263 264 265 267 269 271 273 276 278 280
200 205 210 214 217 218 222 226 221 222 222 221 219 219 221 224 226 227 228 230 232 232 234 235 237 237 239 241 241 244 246 248 250 252 253 256 258 260 261 263 265 265 267 270 272 274 276 278 280
194 200 208 214 218 221 223 227 224 224 225 224 224 224 225 227 228 228 229 230 232 233 234 235 237 239 240 242 244 245 246 247 250 252 254 257 259 262 263 265 266 267 269 271 273 274 276 278 280
187 196 204 211 218 222 224 229 227 227 227 228 228 230 230 230 231 231 232 233 233 234 236 237 239 241 242 243 245 246 248 249 251 253 255 258 261 263 265 265 267 268 270 272 273 275 277 278 280
176 190 199 205 213 219 223 229 228 229 228 227 229 230 232 233 233 233 234 235 236 236 238 239 240 242 243 245 247 248 249 251 253 255 257 259 261 262 264 266 267 269 271 273 275 277 277 279 281
169 177 188 202 208 217 225 227 227 230 231 230 232 234 235 234 234 234 235 236 237 237 238 239 241 242 244 246 247 249 250 252 254 256 258 260 262 263 265 267 269 271 273 274 275 276 278 279 280
166 182 192 206 217 222 228 231 233 233 234 234 235 236 238 237 237 236 236 235 236 237 238 239 240 242 244 246 247 249 251 253 254 256 258 260 262 264 266 267 269 271 273 274 275 277 278 279 279
165 191 207 219 230 238 240 241 241 238 237 236 235 236 238 238 238 237 237 236 237 237 238 239 241 242 244 246 248 250 252 253 255 256 258 261 262 264 265 267 268 271 272 273 274 276 277 278 279
170 194 220 233 240 246 251 246 241 241 240 239 238 237 238 238 239 238 237 237 237 238 239 240 241 243 245 246 248 250 251 253 255 257 258 260 262 263 265 266 268 270 272 273 274 276 277 279 280
Height
5740 5748 5755 5761 5766 5770 5779 5794 5805 5814 5820 5826 5831 5834 5838 5844 5849 5856 5857 5860 5863 5867 5870 5872 5875 5877 5879 5881 5882 5884 5886 5887 5889 5890 5891 5892 5893 5894 5894 5894 5895 5895 5895 5895 5895 5895 5894 5894 5894
5730 5738 5745 5750 5754 5761 5774 5789 5799 5809 5816 5820 5823 5828 5832 5838 5844 5849 5853 5857 5860 5864 5867 5869 5872 5874 5877 5879 5881 5882 5884 5886 5887 5889 5890 5891 5892 5892 5893 5893 5893 5894 5894 5894 5894 5894 5894 5893 5893
5720 5727 5735 5739 5744 5756 5772 5786 5796 5803 5808 5812 5816 5822 5828 5834 5840 5845 5849 5853 5857 5860 5864 5867 5869 5872 5874 5876 5878 5880 5882 5884 5886 5887 5888 5889 5890 5891 5891 5892 5892 5892 5893 5893 5893 5893 5893 5892 5892
5710 5718 5724 5730 5738 5753 5768 5781 5788 5793 5799 5804 5809 5816 5823 5830 5836 5841 5845 5849 5853 5857 5860 5863 5866 5869 5872 5874 5876 5878 5880 5882 5884 5885 5886 5888 5888 5889 5890 5890 5891 5891 5891 5891 5891 5891 5892 5891 5891
5700 5708 5714 5721 5734 5749 5761 5771 5777 5785 5791 5797 5803 5810 5818 5825 5830 5835 5840 5845 5849 5853 5857 5860 5863 5866 5869 5872 5874 5876 5878 5880 5882 5883 5885 5886 5887 5887 5888 5889 5889 5890 5890 5890 5890 5890 5890 5890 5890
5691 5698 5706 5716 5730 5743 5753 5761 5768 5776 5783 5790 5796 5804 5812 5819 5826 5831 5835 5840 5845 5849 5853 5856 5859 5863 5866 5869 5871 5873 5875 5877 5879 5881 5882 5884 5885 5886 5886 5887 5888 5888 5888 5888 5889 5889 5889 5889 5888
5684 5692 5701 5713 5725 5735 5746 5753 5760 5768 5776 5783 5790 5798 5806 5814 5820 5825 5830 5835 5840 5844 5849 5852 5856 5859 5862 5865 5868 5871 5873 5875 5877 5879 5880 5881 5882 5884 5884 5885 5886 5886 5887 5887 5887 5887 5887 5887 5887
5677 5686 5695 5706 5717 5728 5738 5744 5752 5761 5769 5777 5784 5792 5801 5809 5815 5820 5825 5830 5835 5840 5844 5848 5852 5856 5859 5862 5865 5867 5870 5872 5874 5876 5877 5879 5880 5881 5882 5883 5884 5884 5885 5885 5885 5885 5885 5885 5885
5670 5679 5688 5700 5710 5721 5729 5736 5744 5753 5762 5770 5779 5788 5796 5803 5809 5815 5821 5826 5830 5835 5840 5844 5848 5852 5856 5859 5862 5864 5867 5869 5871 5873 5875 5876 5877 5879 5880 5880 5881 5882 5882 5883 5883 5883 5883 5883 5883
5664 5673 5684 5694 5703 5713 5720 5728 5737 5747 5755 5764 5773 5782 5789 5797 5804 5810 5816 5822 5827 5831 5836 5840 5844 5848 5852 5855 5858 5861 5863 5866 5868 5870 5872 5873 5875 5876 5877 5878 5879 5879 5880 5880 5880 5881 5880 5880 5880
5659 5669 5679 5687 5695 5704 5713 5722 5730 5740 5750 5758 5768 5777 5784 5791 5798 5805 5811 5817 5822 5827 5831 5836 5840 5844 5848 5851 5854 5857 5860 5862 5865 5866 5868 5870 5871 5873 5874 5875 5876 5876 5877 5877 5877 5878 5878 5878 5877
5656 5664 5673 5681 5689 5698 5707 5717 5725 5735 5745 5753 5761 5770 5777 5785 5792 5799 5804 5810 5816 5822 5827 5831 5835 5840 5844 5847 5850 5853 5856 5859 5861 5863 5865 5866 5868 5869 5870 5872 5872 5873 5873 5874 5874 5874 5874 5874 5874
5652 5660 5667 5676 5684 5693 5702 5711 5720 5730 5739 5747 5755 5763 5771 5778 5785 5792 5798 5804 5810 5816 5822 5826 5830 5835 5839 5842 5846 5849 5852 5854 5857 5859 5861 5862 5864 5865 5867 5868 5868 5869 5870 5870 5870 5870 5870 5870 5870
5649 5656 5664 5671 5679 5688 5697 5706 5715 5724 5733 5741 5749 5757 5764 5772 5779 5786 5792 5798 5804 5810 5816 5821 5825 5829 5833 5837 5841 5844 5846 5849 5852 5854 5856 5858 5860 5861 5862 5863 5864 5865 5865 5866 5866 5866 5866 5866 5866
5646 5653 5660 5667 5675 5683 5692 5701 5710 5719 5726 5735 5743 5751 5758 5765 5773 5780 5786 5792 5798 5804 5810 5815 5820 5824 5828 5831 5835 5838 5841 5844 5847 5849 5851 5853 5855 5856 5857 5858 5859 5860 5861 5861 5861 5861 5861 5861 5861
5643 5650 5657 5664 5670 5678 5688 5697 5705 5712 5720 5729 5737 5745 5752 5759 5767 5773 5780 5785 5791 5797 5803 5808 5812 5817 5822 5825 5829 5832 5835 5838 5841 5843 5845 5847 5849 5851 5852 5853 5854 5855 5855 5856 5856 5856 5856 5856 5855
5641 5648 5654 5661 5667 5674 5683 5692 5700 5707 5715 5723 5731 5739 5746 5753 5760 5767 5773 5778 5785 5790 5796 5801 5805 5810 5815 5819 5822 5825 5828 5831 5834 5837 5839 5841 5843 5845 5846 5847 5848 5849 5850 5850 5850 5850 5850 5850 5850
5641 5647 5653 5659 5665 5672 5679 5687 5694 5701 5709 5717 5725 5733 5740 5747 5754 5760 5766 5772 5778 5784 5789 5794 5799 5803 5807 5811 5814 5818 5821 5825 5827 5830 5832 5834 5836 5838 5840 5841 5842 5842 5843 5844 5844 5844 5844 5844 5843
5640 5645 5651 5657 5662 5669 5676 5683 5690 5696 5704 5711 5718 5726 5734 5741 5747 5753 5759 5765 5771 5777 5782 5787 5792 5796 5801 5804 5808 5811 5814 5817 5820 5822 5825 5827 5829 5831 5832 5834 5834 5835 5836 5836 5837 5837 5837 5836 5836
5639 5644 5649 5654 5659 5666 5672 5679 5685 5691 5699 5706 5713 5720 5727 5734 5741 5747 5753 5759 5764 5770 5775 5780 5785 5789 5793 5797 5801 5804 5806 5809 5812 5815 5817 5819 5821 5823 5824 5826 5827 5828 5828 5829 5829 5829 5829 5828 5828
5638 5643 5648 5653 5658 5663 5669 5676 5682 5688 5693 5700 5708 5715 5722 5729 5735 5741 5746 5752 5757 5763 5768 5772 5777 5781 5785 5789 5792 5796 5798 5801 5804 5807 5809 5811 5813 5815 5816 5817 5818 5819 5820 5820 5820 5820 5820 5820 5819
5638 5642 5647 5652 5656 5661 5666 5672 5679 5683 5689 5696 5703 5709 5716 5723 5728 5734 5740 5745 5751 5756 5760 5765 5769 5773 5777 5780 5784 5788 5791 5794 5797 5799 5800 5803 5804 5806 5807 5808 5809 5810 5811 5811 5811 5811 5811 5811 5810
5637 5641 5646 5650 5654 5659 5663 5668 5675 5679 5685 5692 5698 5704 5710 5716 5721 5727 5732 5738 5743 5748 5752 5756 5760 5764 5768 5772 5776 5779 5783 5786 5788 5790 5792 5794 5795 5797 5798 5799 5800 5801 5802 5802 5802 5802 5802 5801 5801
5636 5640 5644 5647 5651 5657 5661 5665 5672 5676 5682 5688 5693 5698 5703 5708 5713 5719 5724 5729 5734 5739 5744 5747 5751 5755 5759 5763 5766 5769 5773 5776 5778 5780 5782 5784 5786 5787 5789 5790 5791 5792 5792 5792 5792 5792 5792 5791 5790
5636 5640 5643 5646 5649 5653 5658 5661 5669 5673 5677 5681 5686 5690 5695 5700 5705 5710 5715 5720 5726 5730 5734 5738 5742 5746 5750 5753 5757 5760 5763 5766 5768 5771 5773 5775 5777 5778 5779 5780 5781 5782 5782 5782 5782 5782 5781 5780 5780
5636 5639 5643 5646 5648 5651 5654 5658 5665 5667 5671 5675 5678 5682 5687 5692 5697 5702 5707 5711 5716 5721 5725 5729 5733 5736 5740 5743 5747 5750 5753 5756 5758 5761 5763 5765 5766 5768 5769 5770 5771 5771 5771 5771 5771 5771 5770 5769 5768
5636 5639 5642 5645 5646 5649 5651 5655 5660 5662 5665 5668 5672 5676 5680 5684 5689 5693 5697 5702 5706 5711 5715 5719 5722 5726 5730 5733 5736 5739 5742 5745 5748 5750 5752 5754 5756 5757 5758 5759 5759 5759 5760 5760 5760 5759 5759 5758 5756
5638 5639 5641 5643 5645 5647 5649 5652 5655 5657 5659 5662 5666 5669 5673 5676 5680 5684 5688 5692 5696 5700 5704 5708 5712 5716 5719 5723 5726 5729 5732 5735 5737 5740 5742 5743 5745 5746 5747 5748 5748 5749 5749 5749 5748 5748 5747 5746 5745
5638 5640 5641 5642 5643 5645 5646 5651 5651 5652 5654 5656 5659 5662 5665 5668 5671 5674 5678 5682 5686 5690 5694 5698 5701 5705 5709 5712 5715 5718 5721 5723 5726 5728 5730 5732 5733 5734 5735 5736 5737 5737 5737 5737 5736 5736 5735 5734 5733
5639 5639 5640 5642 5642 5642 5643 5648 5646 5647 5648 5650 5652 5654 5657 5659 5662 5665 5668 5672 5675 5679 5683 5687 5691 5694 5698 5701 5704 5707 5709 5712 5715 5717 5719 5720 5721 5723 5723 5724 5725 5725 5725 5725 5725 5724 5723 5722 5721